Weather History for Port Huron, MI

Change the Weather History Date:

Thursday, August 29, 2013

  Actual Average (KMTC) Record (KMTC)
Temperature  
Mean Temperature 73 °F -  
Max Temperature 82 °F 78 °F 94 °F (1953)
Min Temperature 64 °F 60 °F 40 °F (1965)
Cooling Degree Days 8    
Growing Degree Days 23 (Base 50)    
Moisture  
Dew Point 67 °F    
Average Humidity 86    
Maximum Humidity 100    
Minimum Humidity 54    
Precipitation  
Precipitation 0.00 in - - ()
Sea Level Pressure  
Sea Level Pressure 30.05 in    
Wind  
Wind Speed 1 mph (NNE)    
Max Wind Speed 9 mph    
Max Gust Speed -    
Visibility 8 miles    
Events      
Averages and records for this station are not official NWS values.
T = Trace of Precipitation, MM = Missing Value Source: NWS Daily Summary

Daily Weather History Graph

Daily Weather History Graph

Search for Another Location

Airport:

Trip Planner

Search our weather history database for the weather conditions in past years. The results will help you decide how hot, cold, wet, or windy it might be!

Date:

Astronomy

Aug. 29, 2013 Rise Set
Actual Time 6:51 AM EDT 8:09 PM EDT
Civil Twilight 6:22 AM EDT 8:38 PM EDT
Nautical Twilight 5:46 AM EDT 9:13 PM EDT
Astronomical Twilight 5:09 AM EDT 9:50 PM EDT
Moon 12:38 AM EDT (8/29) 3:41 PM EDT (8/29)
Length of Visible Light 14h 16m
Length of Day
13h 17m
Last Quarter, 38% of the Moon is Illuminated
Aug 29
Last Quarter
Sep 5
New
Sep 12
First Quarter
Sep 19
Full
Sep 26
Last Quarter

Hourly Weather History & Observations

Time (EDT) Temp. Heat Index Dew Point Humidity Pressure Visibility Wind Dir Wind Speed Gust Speed Precip Events Conditions
12:16 AM 68.0 °F - 68.0 °F 100% 30.02 in 7.0 mi Calm Calm - N/A   Clear
12:36 AM 68.0 °F - 68.0 °F 100% 30.02 in 5.0 mi Calm Calm - N/A   Clear
12:56 AM 68.0 °F - 68.0 °F 100% 30.02 in 5.0 mi Calm Calm - N/A   Clear
1:16 AM 68.0 °F - 68.0 °F 100% 30.02 in 5.0 mi Calm Calm - N/A   Clear
1:36 AM 66.2 °F - 66.2 °F 100% 30.02 in 5.0 mi NNW 3.5 mph - N/A   Clear
1:56 AM 66.2 °F - 66.2 °F 100% 30.02 in 5.0 mi Calm Calm - N/A   Clear
2:16 AM 66.2 °F - 66.2 °F 100% 30.02 in 5.0 mi Calm Calm - N/A   Clear
2:36 AM 66.2 °F - 66.2 °F 100% 30.02 in 5.0 mi Calm Calm - N/A   Clear
2:56 AM 66.2 °F - 66.2 °F 100% 30.02 in 5.0 mi Calm Calm - N/A   Clear
3:16 AM 66.2 °F - 66.2 °F 100% 30.02 in 7.0 mi Calm Calm - N/A   Clear
3:36 AM 68.0 °F - 68.0 °F 100% 30.02 in 7.0 mi North 4.6 mph - N/A   Clear
3:56 AM 68.0 °F - 68.0 °F 100% 30.02 in 10.0 mi Calm Calm - N/A   Clear
4:16 AM 66.2 °F - 66.2 °F 100% 30.02 in 7.0 mi Calm Calm - N/A   Clear
4:36 AM 66.2 °F - 66.2 °F 100% 30.02 in 7.0 mi NNW 3.5 mph - N/A   Clear
4:56 AM 66.2 °F - 66.2 °F 100% 30.02 in 7.0 mi Calm Calm - N/A   Clear
5:16 AM 66.2 °F - 66.2 °F 100% 30.03 in 7.0 mi Calm Calm - N/A   Clear
5:36 AM 66.2 °F - 66.2 °F 100% 30.03 in 7.0 mi Calm Calm - N/A   Clear
5:56 AM 66.2 °F - 66.2 °F 100% 30.03 in 5.0 mi Calm Calm - N/A   Clear
6:16 AM 66.2 °F - 66.2 °F 100% 30.03 in 5.0 mi Calm Calm - N/A   Clear
6:36 AM 66.2 °F - 66.2 °F 100% 30.04 in 5.0 mi Calm Calm - N/A   Clear
6:56 AM 64.4 °F - 64.4 °F 100% 30.04 in 1.8 mi Calm Calm - N/A   Mist
7:16 AM 64.4 °F - 64.4 °F 100% 30.05 in 3.0 mi Calm Calm - N/A   Clear
7:36 AM 66.2 °F - 66.2 °F 100% 30.06 in 3.0 mi Calm Calm - N/A   Clear
7:56 AM 66.2 °F - 66.2 °F 100% 30.07 in 4.0 mi Calm Calm - N/A   Clear
8:16 AM 68.0 °F - 68.0 °F 100% 30.07 in 5.0 mi NNW 3.5 mph - N/A   Clear
8:36 AM 69.8 °F - 69.8 °F 100% 30.08 in 7.0 mi Calm Calm - N/A   Clear
8:56 AM 71.6 °F - 69.8 °F 94% 30.08 in 7.0 mi Calm Calm - N/A   Clear
9:16 AM 71.6 °F - 69.8 °F 94% 30.08 in 10.0 mi North 3.5 mph - N/A   Clear
9:36 AM 73.4 °F - 71.6 °F 94% 30.08 in 10.0 mi Calm Calm - N/A   Clear
9:56 AM 75.2 °F - 71.6 °F 89% 30.08 in 10.0 mi Calm Calm - N/A   Clear
10:16 AM 75.2 °F - 71.6 °F 89% 30.08 in 10.0 mi Calm Calm - N/A   Clear
10:36 AM 77.0 °F - 71.6 °F 83% 30.09 in 10.0 mi Calm Calm - N/A   Clear
10:56 AM 78.8 °F - 71.6 °F 78% 30.09 in 10.0 mi Calm Calm - N/A   Clear
11:16 AM 78.8 °F - 69.8 °F 74% 30.09 in 10.0 mi ENE 3.5 mph - N/A   Clear
11:36 AM 78.8 °F - 71.6 °F 78% 30.09 in 10.0 mi Calm Calm - N/A   Clear
11:56 AM 80.6 °F 83.9 °F 69.8 °F 70% 30.09 in 10.0 mi ENE 5.8 mph - N/A   Clear
12:16 PM 82.4 °F 85.4 °F 68.0 °F 62% 30.09 in 10.0 mi Calm Calm - N/A   Clear
12:36 PM 82.4 °F 86.3 °F 69.8 °F 66% 30.09 in 10.0 mi Calm Calm - N/A   Clear
12:56 PM 82.4 °F 86.3 °F 69.8 °F 66% 30.08 in 10.0 mi Calm Calm - N/A   Clear
1:16 PM 82.4 °F 86.3 °F 69.8 °F 66% 30.08 in 10.0 mi Calm Calm - N/A   Scattered Clouds
1:36 PM 82.4 °F 87.2 °F 71.6 °F 70% 30.07 in 10.0 mi ENE 3.5 mph - N/A   Scattered Clouds
1:56 PM 82.4 °F 86.3 °F 69.8 °F 66% 30.08 in 10.0 mi NNE 6.9 mph - N/A   Clear
2:16 PM 82.4 °F 86.3 °F 69.8 °F 66% 30.07 in 10.0 mi NNE 8.1 mph - N/A   Clear
2:36 PM 82.4 °F 86.3 °F 69.8 °F 66% 30.06 in 10.0 mi NE 8.1 mph - N/A   Clear
2:56 PM 82.4 °F 85.4 °F 68.0 °F 62% 30.06 in 10.0 mi NE 5.8 mph - N/A   Clear
3:16 PM 82.4 °F 85.4 °F 68.0 °F 62% 30.06 in 10.0 mi NNE 8.1 mph - N/A   Clear
3:36 PM 82.4 °F 85.4 °F 68.0 °F 62% 30.07 in 10.0 mi NE 6.9 mph - N/A   Clear
3:56 PM 82.4 °F 85.4 °F 68.0 °F 62% 30.06 in 10.0 mi NNE 3.5 mph - N/A   Clear
4:16 PM 82.4 °F 84.6 °F 66.2 °F 58% 30.05 in 10.0 mi NNE 9.2 mph - N/A   Clear
4:36 PM 82.4 °F 83.9 °F 64.4 °F 54% 30.06 in 10.0 mi NE 9.2 mph - N/A   Clear
4:56 PM 80.6 °F 82.7 °F 66.2 °F 61% 30.05 in 10.0 mi NNE 6.9 mph - N/A   Clear
5:16 PM 80.6 °F 82.7 °F 66.2 °F 61% 30.05 in 10.0 mi NE 8.1 mph - N/A   Clear
5:36 PM 80.6 °F 82.7 °F 66.2 °F 61% 30.05 in 10.0 mi NE 6.9 mph - N/A   Clear
5:56 PM 80.6 °F 82.7 °F 66.2 °F 61% 30.05 in 10.0 mi NE 5.8 mph - N/A   Clear
6:16 PM 78.8 °F - 66.2 °F 65% 30.04 in 10.0 mi NE 6.9 mph - N/A   Clear
6:36 PM 78.8 °F - 68.0 °F 69% 30.04 in 10.0 mi ENE 5.8 mph - N/A   Clear
6:56 PM 78.8 °F - 66.2 °F 65% 30.04 in 10.0 mi NNE 3.5 mph - N/A   Clear
7:16 PM 77.0 °F - 66.2 °F 69% 30.04 in 10.0 mi Calm Calm - N/A   Clear
7:36 PM 75.2 °F - 68.0 °F 78% 30.04 in 10.0 mi NNW 3.5 mph - N/A   Clear
7:56 PM 73.4 °F - 68.0 °F 83% 30.04 in 10.0 mi Calm Calm - N/A   Clear
8:16 PM 69.8 °F - 66.2 °F 88% 30.04 in 10.0 mi Calm Calm - N/A   Clear
8:36 PM 68.0 °F - 66.2 °F 94% 30.05 in 10.0 mi Calm Calm - N/A   Clear
8:56 PM 68.0 °F - 66.2 °F 94% 30.06 in 10.0 mi Calm Calm - N/A   Clear
9:16 PM 66.2 °F - 66.2 °F 100% 30.06 in 7.0 mi Calm Calm - N/A   Clear
9:36 PM 66.2 °F - 66.2 °F 100% 30.06 in 7.0 mi Calm Calm - N/A   Clear
9:56 PM 66.2 °F - 66.2 °F 100% 30.06 in 7.0 mi Calm Calm - N/A   Clear
10:16 PM 64.4 °F - 64.4 °F 100% 30.06 in 4.0 mi Calm Calm - N/A   Clear
10:36 PM 64.4 °F - 64.4 °F 100% 30.04 in 3.0 mi Calm Calm - N/A   Clear
10:56 PM 64.4 °F - 64.4 °F 100% 30.03 in 2.5 mi Calm Calm - N/A   Clear
11:16 PM 64.4 °F - 64.4 °F 100% 30.02 in 0.8 mi Calm Calm - N/A   Mist
11:36 PM 64.4 °F - 64.4 °F 100% 30.02 in 2.5 mi Calm Calm - N/A   Clear
11:56 PM 64.4 °F - 64.4 °F 100% 30.02 in 1.8 mi Calm Calm - N/A   Mist